Overview Statistics Trail Chart Weather Telemetry Raw packets
 

This is the latest recevied weather packets stored in our database for station/object M0SDM-10. If no packets are shown the sender has not sent any weather packets the latest 10 day(s).

<< 6 7 8 9 10 11 12 >>
Time Temp. Humidity Pressure Rain* Wind** Luminosity Snow
1788357151 17.78° C 74% 1005.2 hPa - - - -
1788355351 17.78° C 72% 1005.5 hPa - - - -
1788353550 17.78° C 71% 1005.7 hPa - - - -
1788351750 17.78° C 72% 1006 hPa - - - -
1788349950 17.22° C 74% 1006.4 hPa - - - -
1788348150 17.22° C 76% 1006.6 hPa - - - -
1788346350 17.22° C 76% 1007 hPa - - - -
1788344550 17.22° C 73% 1007.5 hPa - - - -
1788342750 17.22° C 72% 1007.7 hPa - - - -
1788340950 16.67° C 70% 1007.7 hPa - - - -
1788339149 16.67° C 71% 1007.7 hPa - - - -
1788337349 16.67° C 71% 1007.6 hPa - - - -
1788335549 16.67° C 70% 1007.5 hPa - - - -
1788333749 16.67° C 70% 1007.6 hPa - - - -
1788331949 16.67° C 69% 1007.4 hPa - - - -
1788330149 16.67° C 69% 1007.1 hPa - - - -
1788328348 16.67° C 68% 1007.1 hPa - - - -
1788326548 16.67° C 68% 1007 hPa - - - -
1788324748 16.67° C 68% 1007.1 hPa - - - -
1788322948 16.67° C 67% 1007.1 hPa - - - -
1788321148 16.67° C 67% 1007.3 hPa - - - -
1788319347 16.67° C 67% 1007.4 hPa - - - -
1788317547 16.67° C 67% 1007.5 hPa - - - -
1788315747 17.22° C 66% 1007.4 hPa - - - -
1788313947 17.22° C 66% 1007.6 hPa - - - -

* Rain since midnight (hover to see other rain measurements)
** Current wind speed in m/s (hover to see current wind gust speed)